Retour au catalogue

STARLINK-1193

ActifCommunicationsVLEO
NORAD 45100·PAYLOAD·🇺🇸 United States

Lancé Jan 29, 2020 depuis Cape Canaveral Space Force Station

Loading…

Prochains Passages (prochaines 24 heures)

TLE

FraisSource: CelesTrak SupGP

Époque: Sep 15, 2026, 01:49 UTC

1 45100C 20006BJ  26258.07618056  .00098489  00000+0  51897-3 0  2582
2 45100  53.0414  16.4266 0004382 295.3552 198.8954 15.79906209    15

Suivez STARLINK-1193 en temps réel avec AllMySat

Download on the App Store